{"data":{"norad_id":25397,"intl_designator":"1998-043D","name":"TECHSAT 1B (GO-32)","alt_names":[],"object_type":"PAYLOAD","status":"ACTIVE","operator":null,"country":"ISRA","launch_date":"1998-07-10","launch_site_code":"TYMSC","launch_vehicle":null,"mission":null,"orbit_class":"UNKNOWN","rcs_meters":0.1988,"size_class":null,"mass_kg":null,"dimensions":null,"purposes":["comms","earth_obs"],"wikipedia_slug":null,"has_3d_model":false,"image_url":null,"decayed_at":null,"tle_current":{"epoch":"2026-05-24T22:54:20.693952Z","epoch_age_seconds":85830,"freshness":"FRESH","line1":"1 25397U 98043D   26144.95440618  .00000048  00000+0  40816-4 0  9998","line2":"2 25397  99.0063 137.1282 0000371 333.0816  27.0342 14.24423132448026","mean_motion":14.24423132,"eccentricity":3.71e-5,"inclination_deg":99.0063,"raan_deg":137.1282,"arg_perigee_deg":333.0816,"mean_anomaly_deg":27.0342,"bstar":4.0816e-5,"rev_number":44802,"period_min":101.09355623691,"perigee_km":810.16613854163,"apogee_km":810.69953042335,"semimajor_km":7188.5698344825,"source":"CELESTRAK","updated_at":"2026-05-25T13:38:23.278902Z"}}}